DW6513 Weather Reports


time (UTC)temp
C
wind
direction
speed
KPH
gust
KPH
rain 1hr
cm
rain 24hr
cm
rain mn
cm
humidity
%
barometer
mb
20260505051803 21 213 12.9 24.1 0.00 0.08 0.00 56 1003.8
20260505051304 21 145 12.9 24.1 0.00 0.08 0.00 56 1003.8
20260505050822 21 145 12.9 19.3 0.00 0.08 0.00 55 1003.9
20260505050304 21 156 11.3 19.3 0.00 0.08 0.00 56 1003.9
20260505040803 22 145 9.7 16.1 0.00 0.08 0.08 54 1003.7
20260505040304 22 179 9.7 16.1 0.00 0.08 0.08 55 1003.7
20260505035803 22 145 9.7 24.1 0.00 0.08 0.08 54 1003.7
20260505034804 22 280 9.7 14.5 0.00 0.08 0.08 54 1003.9
20260505034303 22 145 8.0 14.5 0.00 0.08 0.08 54 1003.9
20260505033803 22 145 8.0 9.7 0.00 0.08 0.08 54 1003.9
20260505033303 22 145 8.0 12.9 0.00 0.08 0.08 54 1003.9
20260505032804 22 145 8.0 12.9 0.00 0.08 0.08 53 1003.9
20260505032304 22 101 8.0 12.9 0.00 0.08 0.08 52 1003.9
20260505031803 22 145 11.3 12.9 0.00 0.08 0.08 52 1003.9
20260505031304 22 145 11.3 19.3 0.00 0.08 0.08 52 1003.9
20260505030304 23 145 8.0 12.9 0.00 0.08 0.08 51 1003.6
20260505025803 23 145 8.0 11.3 0.00 0.08 0.08 51 1003.6
20260505024804 23 145 8.0 8.0 0.00 0.08 0.08 51 1003.0
20260505024304 23 230 8.0 11.3 0.00 0.08 0.08 51 1003.0
20260505023803 23 257 4.8 12.9 0.00 0.08 0.08 51 1003.0
20260505023304 23 141 4.8 9.7 0.00 0.08 0.08 50 1003.0
20260505022803 23 167 8.0 12.9 0.00 0.08 0.08 50 1002.7
20260505012803 23 167 9.7 12.9 0.00 0.08 0.08 49 1003.8
20260505012304 23 145 8.0 19.3 0.00 0.08 0.08 50 1003.8
20260505011805 23 123 6.4 14.5 0.00 0.08 0.08 50 1003.8
20260505010804 23 167 3.2 3.2 0.00 0.08 0.08 50 1003.2
20260505010304 24 178 4.8 9.7 0.00 0.08 0.08 49 1003.2
20260505005804 24 167 9.7 12.9 0.00 0.08 0.08 48 1003.2
20260505005304 24 145 9.7 12.9 0.00 0.08 0.08 48 1003.2
20260505004803 25 145 9.7 14.5 0.00 0.08 0.08 47 1003.2
20260505004304 25 145 8.0 14.5 0.00 0.08 0.08 47 1003.2
20260505003804 25 145 8.0 14.5 0.00 0.08 0.08 47 1003.2
20260505003304 25 160 11.3 14.5 0.00 0.08 0.08 47 1003.2
20260505002803 25 145 11.3 19.3 0.00 0.08 0.08 46 1002.9
20260505002304 25 152 11.3 19.3 0.00 0.08 0.08 46 1002.9
20260505001811 25 145 9.7 16.1 0.00 0.08 0.08 46 1002.9
20260505001304 25 145 9.7 11.3 0.00 0.08 0.08 46 1002.9
20260505000804 26 145 11.3 9.7 0.00 0.08 0.08 46 1003.0
20260505000304 26 145 12.9 20.9 0.00 0.08 0.08 46 1003.0
20260504235804 26 145 11.3 19.3 0.00 0.08 0.08 46 1003.0
20260504235305 26 182 9.7 19.3 0.00 0.08 0.08 46 1003.0
20260504234803 26 145 11.3 12.9 0.00 0.08 0.08 46 1002.7
20260504234304 26 160 12.9 16.1 0.00 0.08 0.08 45 1002.7
20260504233805 26 145 12.9 20.9 0.00 0.08 0.08 45 1002.7
20260504233303 26 123 11.3 20.9 0.00 0.08 0.08 45 1002.7
20260504232803 26 145 12.9 19.3 0.00 0.08 0.08 45 1003.1
20260504232303 26 156 12.9 19.3 0.00 0.08 0.08 45 1003.1
20260504231303 26 145 8.0 14.5 0.00 0.08 0.08 48 1003.1
20260504230803 26 145 8.0 9.7 0.00 0.08 0.08 50 1003.9
20260504230302 26 145 8.0 14.5 0.00 0.08 0.08 51 1003.9
20260504225804 26 145 4.8 14.5 0.00 0.08 0.08 52 1003.9
20260504225304 26 154 1.6 9.7 0.00 0.08 0.08 52 1003.9
20260504224803 27 145 0.0 0.0 0.00 0.08 0.08 52 1004.0
20260504224303 27 167 1.6 0.0 0.00 0.08 0.08 52 1004.0
20260504223803 26 190 1.6 4.8 0.00 0.08 0.08 52 1004.0
20260504223303 27 145 1.6 4.8 0.00 0.08 0.08 51 1004.0
20260504222803 27 145 1.6 8.0 0.00 0.08 0.08 50 1003.8
20260504222304 27 163 0.0 4.8 0.00 0.08 0.08 50 1003.8
20260504221803 28 235 1.6 0.0 0.00 0.08 0.08 50 1003.8
20260504221303 27 213 1.6 0.0 0.00 0.08 0.08 50 1003.8
20260504220803 27 280 1.6 9.7 0.00 0.08 0.08 49 1003.6
20260504220302 27 242 1.6 9.7 0.00 0.08 0.08 48 1003.6
20260504215803 27 33 4.8 9.7 0.00 0.08 0.08 49 1003.6
20260504215304 28 130 3.2 14.5 0.00 0.08 0.08 49 1003.6
20260504214803 28 145 1.6 14.5 0.00 0.08 0.08 48 1003.6
20260504214304 28 145 3.2 4.8 0.00 0.08 0.08 49 1003.6
20260504213804 27 303 8.0 12.9 0.00 0.08 0.08 50 1003.6
20260504213303 27 174 4.8 19.3 0.00 0.08 0.08 50 1003.6
20260504212304 28 130 1.6 8.0 0.00 0.08 0.08 52 1004.3
20260504211803 28 190 1.6 8.0 0.00 0.08 0.08 52 1004.3
20260504211303 27 180 1.6 8.0 0.00 0.08 0.08 52 1004.3
20260504210804 27 303 3.2 3.2 0.00 0.08 0.08 55 1004.3
20260504210303 27 204 4.8 12.9 0.00 0.08 0.08 54 1004.3
20260504205803 26 167 4.8 12.9 0.00 0.08 0.08 56 1004.3
20260504205304 26 190 6.4 14.5 0.00 0.08 0.08 56 1004.3
20260504204803 25 145 4.8 19.3 0.00 0.08 0.08 57 1004.8
20260504204303 26 145 1.6 19.3 0.00 0.08 0.08 56 1004.8
20260504203803 25 33 1.6 3.2 0.00 0.08 0.08 59 1004.8
20260504203303 25 242 1.6 3.2 0.00 0.08 0.08 63 1004.8
20260504202804 24 190 1.6 3.2 0.00 0.08 0.08 65 1004.9
20260504202304 24 157 1.6 14.5 0.00 0.08 0.08 66 1004.9
20260504201803 23 123 1.6 14.5 0.00 0.08 0.08 70 1004.9
20260504201303 22 233 1.6 4.8 0.00 0.08 0.08 70 1004.9
20260504195803 21 303 1.6 4.8 0.00 0.08 0.08 75 1005.4
20260504195304 21 251 3.2 9.7 0.00 0.08 0.08 75 1005.4
20260504194302 22 240 1.6 8.0 0.00 0.08 0.08 78 1005.0
20260504193803 21 303 0.0 3.2 0.00 0.08 0.08 81 1005.0
20260504193303 20 176 0.0 0.0 0.00 0.08 0.08 84 1005.0
20260504192803 18 190 1.6 3.2 0.08 0.08 0.08 85 1006.6
20260504192304 18 149 3.2 9.7 0.08 0.08 0.08 85 1006.6
20260504191803 18 213 1.6 9.7 0.08 0.08 0.08 85 1006.6
20260504191303 17 190 0.0 4.8 0.08 0.08 0.08 85 1006.6
20260504190803 17 123 0.0 0.0 0.08 0.08 0.08 83 1006.3
20260504190303 17 197 1.6 0.0 0.08 0.08 0.08 83 1006.3
20260504185803 17 167 1.6 8.0 0.08 0.08 0.08 83 1006.3
20260504185304 17 132 1.6 8.0 0.08 0.08 0.08 83 1006.3
20260504184303 17 205 3.2 8.0 0.08 0.08 0.08 83 1006.8
20260504183803 17 303 3.2 8.0 0.08 0.08 0.08 84 1006.8
20260504183303 17 75 1.6 9.7 0.08 0.08 0.08 84 1006.8
20260504182304 18 145 0.0 0.0 0.00 0.00 0.00 72 1007.6
20260504181804 18 213 0.0 0.0 0.00 0.00 0.00 71 1007.6
20260504181303 18 213 0.0 3.2 0.00 0.00 0.00 71 1007.6
20260504180803 18 347 0.0 3.2 0.00 0.00 0.00 71 1007.0
20260504180303 18 280 0.0 0.0 0.00 0.00 0.00 71 1007.0
20260504175803 18 347 0.0 3.2 0.00 0.00 0.00 69 1007.0
20260504175304 18 336 0.0 3.2 0.00 0.00 0.00 68 1007.0
20260504174303 18 152 0.0 0.0 0.00 0.00 0.00 68 1007.3
20260504173804 18 167 0.0 0.0 0.00 0.00 0.00 67 1007.3
20260504172803 18 145 1.6 0.0 0.00 0.00 0.00 65 1006.6
20260504172304 18 145 1.6 3.2 0.00 0.00 0.00 65 1006.6
20260504171804 18 123 0.0 4.8 0.00 0.00 0.00 65 1006.6
20260504171303 19 145 0.0 0.0 0.00 0.00 0.00 64 1006.6
20260504170803 19 347 0.0 0.0 0.00 0.00 0.00 64 1007.9
20260504170303 19 142 1.6 0.0 0.00 0.00 0.00 64 1007.9
20260504160303 19 206 0.0 0.0 0.00 0.00 0.00 61 1008.2
20260504150803 20 167 3.2 9.7 0.00 0.00 0.00 57 1008.9
20260504150304 20 181 1.6 9.7 0.00 0.00 0.00 56 1008.9
20260504141303 20 228 8.0 12.9 0.00 0.00 0.00 56 1008.3
20260504140803 20 167 4.8 9.7 0.00 0.00 0.00 58 1009.1
20260504140303 20 175 3.2 9.7 0.00 0.00 0.00 58 1009.1
20260504130304 17 178 1.6 9.7 0.00 0.00 0.00 68 1009.6
20260504120304 15 217 0.0 3.2 0.00 0.00 0.00 72 1009.4
20260504110303 15 213 0.0 0.0 0.00 0.00 0.00 69 1009.9
20260504100304 16 311 0.0 0.0 0.00 0.00 0.00 66 1008.5
20260504081804 17 145 0.0 0.0 0.00 0.00 0.00 59 1008.5
20260504081304 17 145 0.0 3.2 0.00 0.00 0.00 59 1008.5